TimePST,TemperatureF,Dew PointF,Humidity,Sea Level PressureIn,VisibilityMPH,Wind Direction,Wind SpeedMPH,Gust SpeedMPH,PrecipitationIn,Events,Conditions,WindDirDegrees,DateUTC
12:56 AM,39.9,39.0,97,30.04,5.0,Calm,Calm,-,0.01,Rain,Light Rain,0,2012-12-24 08:56:00
1:26 AM,39.2,39.2,100,30.05,7.0,Calm,Calm,-,0.00,,Mostly Cloudy,0,2012-12-24 09:26:00
1:56 AM,41.0,39.9,96,30.05,9.0,Calm,Calm,-,0.00,Rain,Light Rain,0,2012-12-24 09:56:00
2:56 AM,39.9,39.0,97,30.07,9.0,Calm,Calm,-,0.00,,Overcast,0,2012-12-24 10:56:00
3:27 AM,41.0,39.2,93,30.07,8.0,Calm,Calm,-,N/A,,Overcast,0,2012-12-24 11:27:00
3:56 AM,39.9,39.0,97,30.08,5.0,Calm,Calm,-,N/A,,Partly Cloudy,0,2012-12-24 11:56:00
4:56 AM,39.0,37.0,93,30.10,10.0,Calm,Calm,-,0.01,,Clear,0,2012-12-24 12:56:00
5:11 AM,37.4,35.6,93,30.12,1.8,Calm,Calm,-,N/A,,Partly Cloudy,0,2012-12-24 13:11:00
5:14 AM,35.6,35.6,100,30.12,0.8,South,3.5,-,N/A,,Mist,190,2012-12-24 13:14:00
5:26 AM,35.6,35.6,100,30.12,0.2,Calm,Calm,-,N/A,Fog,Fog,0,2012-12-24 13:26:00
5:56 AM,36.0,36.0,100,30.15,0.2,Calm,Calm,-,N/A,Fog,Fog,0,2012-12-24 13:56:00
6:56 AM,36.0,36.0,100,30.17,0.2,Calm,Calm,-,N/A,Fog,Fog,0,2012-12-24 14:56:00
7:43 AM,35.6,35.6,100,30.18,0.2,Calm,Calm,-,N/A,Fog,Fog,0,2012-12-24 15:43:00
7:56 AM,35.1,35.1,100,30.18,0.2,Calm,Calm,-,N/A,Fog,Fog,0,2012-12-24 15:56:00
8:56 AM,37.0,36.0,96,30.20,0.2,Calm,Calm,-,N/A,Fog,Fog,0,2012-12-24 16:56:00
9:54 AM,37.4,37.4,100,30.22,0.5,Calm,Calm,-,N/A,Fog,Fog,0,2012-12-24 17:54:00
9:56 AM,37.9,37.0,97,30.23,0.5,Calm,Calm,-,N/A,Fog,Fog,0,2012-12-24 17:56:00
10:27 AM,37.4,37.4,100,30.22,2.0,Calm,Calm,-,N/A,,Overcast,0,2012-12-24 18:27:00
10:35 AM,39.2,37.4,93,30.22,4.0,Calm,Calm,-,N/A,,Overcast,0,2012-12-24 18:35:00
10:56 AM,39.9,39.9,100,30.22,6.0,Calm,Calm,-,0.01,,Overcast,0,2012-12-24 18:56:00
11:56 AM,44.1,39.9,85,30.22,10.0,Calm,Calm,-,N/A,,Scattered Clouds,0,2012-12-24 19:56:00
12:56 PM,48.9,37.9,66,30.17,10.0,Calm,Calm,-,N/A,,Clear,0,2012-12-24 20:56:00
1:56 PM,51.1,37.9,61,30.17,10.0,Calm,Calm,-,N/A,,Clear,0,2012-12-24 21:56:00
2:56 PM,51.1,39.0,63,30.17,10.0,WNW,3.5,-,N/A,,Clear,290,2012-12-24 22:56:00
3:56 PM,50.0,39.0,66,30.16,10.0,Calm,Calm,-,N/A,,Clear,0,2012-12-24 23:56:00
4:56 PM,46.9,39.9,77,30.17,10.0,Calm,Calm,-,N/A,,Clear,0,2012-12-25 00:56:00
5:56 PM,45.0,39.9,82,30.16,10.0,Calm,Calm,-,N/A,,Clear,0,2012-12-25 01:56:00
6:56 PM,43.0,39.9,89,30.17,10.0,Calm,Calm,-,N/A,,Clear,0,2012-12-25 02:56:00
7:56 PM,44.1,39.9,85,30.17,10.0,Calm,Calm,-,N/A,,Overcast,0,2012-12-25 03:56:00
8:56 PM,42.1,39.9,92,30.16,10.0,Calm,Calm,-,N/A,,Partly Cloudy,0,2012-12-25 04:56:00
9:56 PM,42.1,39.9,92,30.16,9.0,Calm,Calm,-,N/A,,Partly Cloudy,0,2012-12-25 05:56:00
10:56 PM,41.0,39.9,96,30.16,10.0,Calm,Calm,-,N/A,,Overcast,0,2012-12-25 06:56:00
11:56 PM,41.0,39.9,96,30.14,10.0,Calm,Calm,-,N/A,,Overcast,0,2012-12-25 07:56:00